Date String (YYYY-MM-DD hh:mm:ss) UTC,Instrument flags,Ambient pressure (hPa),Sample flow (lpm),Bypass flow (lpm),Sample temperature (°C),Ambient temperature (°C),ASC tube jacket temperature (°C),LED temperature (°C),Box temperature (°C),Sample RH (%),Mass concentration (μg/m³),Mass concentration (μg/m³)
DateTimeUTC,F1_M11,P_M11,Q1_M11,Q2_M11,T1_M11,T2_M11,T3_M11,T4_M11,T5_M11,U1_M11,X0_M11,X2_M11
2021-08-17 06:00:00,,0825.9,4.99,0.00,29.4,28.4,00.0,38.4,31.3,17.3,0035.91,0025.73
2021-08-17 06:01:00,,0825.9,5.00,0.00,29.5,28.5,00.0,38.4,31.3,17.3,0036.45,0025.75
2021-08-17 06:02:00,,0825.8,5.01,0.00,29.5,28.6,00.0,38.4,31.4,17.2,0035.49,0025.78
2021-08-17 06:03:00,,0825.8,4.99,0.00,29.5,28.7,00.0,38.5,31.4,17.1,0035.71,0025.84
2021-08-17 06:04:00,,0825.9,5.00,0.00,29.6,28.8,00.0,38.5,31.5,16.8,0035.79,0025.85
2021-08-17 06:05:00,,0825.9,5.00,0.00,29.6,28.8,00.0,38.5,31.5,16.4,0035.94,0025.91
2021-08-17 06:06:00,,0825.8,4.98,0.00,29.7,28.9,00.0,38.6,31.6,16.5,0036.06,0025.97
2021-08-17 06:07:00,,0825.8,5.01,0.00,29.7,28.5,00.0,38.6,31.5,16.3,0036.89,0026.04
2021-08-17 06:08:00,,0825.8,4.99,0.00,29.6,26.9,00.0,38.6,31.0,16.4,0037.38,0026.05
2021-08-17 06:09:00,,0826.0,5.00,0.00,29.5,26.4,00.0,38.6,30.9,16.5,0037.15,0026.08
2021-08-17 06:10:00,,0826.0,5.01,0.00,29.4,26.7,00.0,38.5,30.9,16.5,0037.06,0026.10
2021-08-17 06:11:00,,0826.2,5.00,0.00,29.4,27.0,00.0,38.5,31.0,16.5,0036.95,0026.15
2021-08-17 06:12:00,,0826.1,5.00,0.00,29.4,27.4,00.0,38.5,31.1,16.5,0036.42,0026.20
2021-08-17 06:13:00,,0825.9,4.98,0.00,29.4,27.7,00.0,38.5,31.1,16.5,0036.58,0026.17
2021-08-17 06:14:00,,0825.8,4.99,0.00,29.4,27.9,00.0,38.5,31.2,16.4,0037.42,0026.15
2021-08-17 06:15:00,,0825.8,5.01,0.00,29.4,28.1,00.0,38.5,31.2,16.3,0037.35,0026.14
2021-08-17 06:16:00,,0825.8,5.00,0.00,29.5,28.3,00.0,38.5,31.3,16.3,0038.16,0026.11
2021-08-17 06:17:00,,0825.8,5.00,0.00,29.5,28.4,00.0,38.5,31.4,16.2,0038.56,0026.14
2021-08-17 06:18:00,,0825.8,4.99,0.00,29.6,28.5,00.0,38.5,31.4,16.2,0037.61,0026.11
2021-08-17 06:19:00,,0825.8,5.02,0.00,29.6,28.6,00.0,38.6,31.5,16.1,0036.73,0026.13
2021-08-17 06:20:00,,0825.8,5.00,0.00,29.6,28.7,00.0,38.6,31.5,16.1,0036.75,0026.17
2021-08-17 06:21:00,,0825.8,5.00,0.00,29.7,28.8,00.0,38.6,31.5,16.1,0036.42,0026.15
2021-08-17 06:22:00,,0825.8,5.00,0.00,29.7,28.9,00.0,38.6,31.6,16.1,0037.15,0026.14
2021-08-17 06:23:00,,0825.9,5.01,0.00,29.8,28.9,00.0,38.7,31.6,16.0,0037.78,0026.13
2021-08-17 06:24:00,,0825.8,5.00,0.00,29.7,27.7,00.0,38.7,31.3,16.0,0037.82,0026.19
2021-08-17 06:25:00,,0825.7,5.00,0.00,29.5,25.8,00.0,38.6,30.7,16.2,0036.83,0026.21
2021-08-17 06:26:00,,0825.7,4.99,0.00,29.4,25.4,00.0,38.6,30.6,16.3,0037.18,0026.25
2021-08-17 06:27:00,,0825.8,5.00,0.00,29.3,25.8,00.0,38.5,30.7,16.4,0036.70,0026.30
2021-08-17 06:28:00,,0825.8,5.01,0.00,29.2,26.3,00.0,38.5,30.8,16.5,0036.78,0026.29
2021-08-17 06:29:00,,0825.8,4.99,0.00,29.2,26.7,00.0,38.5,30.8,16.5,0037.23,0026.34
2021-08-17 06:30:00,,0825.8,5.00,0.00,29.2,27.1,00.0,38.4,30.9,16.6,0037.67,0026.37
2021-08-17 06:31:00,,0825.9,5.00,0.00,29.3,27.5,00.0,38.4,31.0,16.5,0037.95,0026.35
2021-08-17 06:32:00,,0826.0,4.99,0.00,29.3,27.7,00.0,38.4,31.1,16.5,0038.26,0026.38
2021-08-17 06:33:00,,0825.9,5.01,0.00,29.3,27.9,00.0,38.4,31.2,16.5,0037.44,0026.39
2021-08-17 06:34:00,,0825.9,5.00,0.00,29.4,28.1,00.0,38.4,31.2,16.6,0036.83,0026.41
2021-08-17 06:35:00,,0825.9,4.99,0.00,29.4,28.3,00.0,38.4,31.3,16.6,0036.59,0026.37
2021-08-17 06:36:00,,0825.9,5.01,0.00,29.5,28.4,00.0,38.5,31.3,16.5,0036.82,0026.37
2021-08-17 06:37:00,,0825.9,5.01,0.00,29.5,28.5,00.0,38.5,31.4,16.5,0036.78,0026.32
2021-08-17 06:38:00,,0825.8,5.00,0.00,29.5,28.6,00.0,38.5,31.4,16.4,0036.81,0026.30
2021-08-17 06:39:00,,0825.8,5.01,0.00,29.6,28.7,00.0,38.5,31.4,16.4,0036.62,0026.30
2021-08-17 06:40:00,,0825.8,5.00,0.00,29.6,28.7,00.0,38.6,31.5,16.3,0036.79,0026.26
2021-08-17 06:41:00,,0825.8,4.99,0.00,29.7,28.8,00.0,38.6,31.5,16.3,0036.89,0026.29
2021-08-17 06:42:00,,0825.8,5.01,0.00,29.7,28.9,00.0,38.6,31.6,16.3,0036.67,0026.25
2021-08-17 06:43:00,,0825.8,4.99,0.00,29.7,28.9,00.0,38.6,31.6,16.3,0036.64,0026.21
2021-08-17 06:44:00,,0825.8,5.01,0.00,29.8,28.9,00.0,38.7,31.7,16.3,0036.69,0026.20
2021-08-17 06:45:00,,0826.0,4.99,0.00,29.7,27.3,00.0,38.7,31.2,16.4,0037.48,0026.16
2021-08-17 06:46:00,,0825.9,4.99,0.00,29.6,26.3,00.0,38.6,31.0,16.5,0038.43,0026.17
2021-08-17 06:47:00,,0826.0,5.00,0.00,29.5,26.5,00.0,38.6,31.0,16.6,0038.44,0026.15
2021-08-17 06:48:00,,0825.8,5.02,0.00,29.4,26.9,00.0,38.6,31.0,16.7,0040.05,0026.19
2021-08-17 06:49:00,,0825.8,4.99,0.00,29.4,27.3,00.0,38.6,31.1,16.7,0039.63,0026.20
2021-08-17 06:50:00,,0825.8,5.00,0.00,29.4,27.6,00.0,38.6,31.1,16.6,0039.73,0026.17
2021-08-17 06:51:00,,0825.7,4.99,0.00,29.5,27.8,00.0,38.6,31.2,16.6,0039.97,0026.20
2021-08-17 06:52:00,,0825.7,5.00,0.00,29.5,28.1,00.0,38.6,31.3,16.6,0039.62,0026.16
2021-08-17 06:53:00,,0825.7,5.00,0.00,29.5,28.2,00.0,38.6,31.3,16.5,0040.66,0026.23
2021-08-17 06:54:00,,0825.7,5.00,0.00,29.6,28.4,00.0,38.6,31.4,16.4,0041.46,0026.23
2021-08-17 06:55:00,,0825.7,5.00,0.00,29.6,28.5,00.0,38.6,31.4,16.3,0041.91,0026.24
2021-08-17 06:56:00,,0825.7,4.99,0.00,29.6,28.6,00.0,38.6,31.5,16.1,0041.53,0026.23
2021-08-17 06:57:00,,0825.7,5.01,0.00,29.7,28.7,00.0,38.6,31.5,16.1,0040.69,0026.25
2021-08-17 06:58:00,,0825.7,4.99,0.00,29.7,28.8,00.0,38.7,31.6,16.0,0040.89,0026.28
2021-08-17 06:59:00,,0825.7,5.01,0.00,29.7,28.8,00.0,38.7,31.6,15.9,0039.25,0026.27
